When you browse on this site, cookies collect data to enhance your experience and personalize the content and advertising you see.
Visit our Privacy Policy to learn more. By continuing to use the site, you agree to this use of cookies and data.
  • Em Portugal
  • Lista de países
  • Para 7 dias
  • Temperatura da água
  • Mapas de satélite
  • Mapa do tempo
  • Widgets de tempo
  • user-avatar
    Iniciar Sessão

    Previsão horária em Linz

    Hoje, 20 Julho, Sábado

    Tempo Temperatura Precipitação Vento Pressão Humidade
    00:00 +19°C° 0.8 mm 1 m/s 734 mmHg 87%
    01:00 +16°C° 0.8 mm 0 m/s 734 mmHg 90%
    02:00 +16°C° 0.1 mm 0 m/s 734 mmHg 90%
    03:00 +15°C° 0.1 mm 0 m/s 734 mmHg 91%
    04:00 +15°C° 0.1 mm 0 m/s 734 mmHg 91%
    05:00 +16°C° 0 mm 0 m/s 734 mmHg 90%
    06:00 +17°C° 0 mm 0 m/s 734 mmHg 88%
    07:00 +18°C° 0 mm 0 m/s 734 mmHg 87%
    08:00 +22°C° 0 mm 1 m/s 734 mmHg 80%
    09:00 +24°C° 0 mm 1 m/s 734 mmHg 73%
    10:00 +26°C° 0 mm 1 m/s 734 mmHg 66%
    11:00 +28°C° 0 mm 1 m/s 734 mmHg 62%
    12:00 +29°C° 0 mm 1 m/s 734 mmHg 57%
    13:00 +30°C° 0 mm 1 m/s 734 mmHg 53%
    14:00 +30°C° 0 mm 1 m/s 734 mmHg 52%
    15:00 +31°C° 0 mm 1 m/s 734 mmHg 51%
    16:00 +31°C° 0 mm 1 m/s 734 mmHg 50%
    17:00 +29°C° 0 mm 1 m/s 734 mmHg 57%
    18:00 +28°C° 0 mm 1 m/s 734 mmHg 64%
    19:00 +26°C° 0 mm 1 m/s 734 mmHg 70%
    20:00 +25°C° 0 mm 1 m/s 735 mmHg 73%
    21:00 +24°C° 0 mm 1 m/s 735 mmHg 75%
    22:00 +22°C° 0 mm 1 m/s 735 mmHg 77%
    23:00 +22°C° 0 mm 1 m/s 735 mmHg 78%

    Amanhã, 21 Julho, Domingo

    Tempo Temperatura Precipitação Vento Pressão Humidade
    00:00 +22°C° 0 mm 1 m/s 735 mmHg 78%
    01:00 +21°C° 0 mm 1 m/s 735 mmHg 79%
    02:00 +21°C° 0.1 mm 1 m/s 735 mmHg 81%
    03:00 +20°C° 0.1 mm 1 m/s 735 mmHg 83%
    04:00 +20°C° 0.1 mm 1 m/s 735 mmHg 86%
    05:00 +21°C° 0 mm 1 m/s 736 mmHg 84%
    06:00 +22°C° 0 mm 1 m/s 736 mmHg 83%
    07:00 +22°C° 0 mm 1 m/s 736 mmHg 82%
    08:00 +21°C° 0.2 mm 2 m/s 737 mmHg 83%
    09:00 +23°C° 0.2 mm 2 m/s 737 mmHg 85%
    10:00 +22°C° 0.2 mm 3 m/s 737 mmHg 86%
    11:00 +22°C° 0.1 mm 3 m/s 737 mmHg 84%
    12:00 +24°C° 0.1 mm 2 m/s 737 mmHg 83%
    13:00 +24°C° 0.1 mm 1 m/s 737 mmHg 81%
    14:00 +25°C° 0.1 mm 2 m/s 738 mmHg 77%
    15:00 +26°C° 0.1 mm 3 m/s 738 mmHg 74%
    16:00 +27°C° 0.1 mm 4 m/s 738 mmHg 70%
    17:00 +26°C° 0.3 mm 3 m/s 738 mmHg 76%
    18:00 +25°C° 0.3 mm 3 m/s 738 mmHg 82%
    19:00 +22°C° 0.3 mm 3 m/s 738 mmHg 87%
    20:00 +21°C° 0.3 mm 2 m/s 739 mmHg 89%
    21:00 +20°C° 0.3 mm 2 m/s 739 mmHg 90%
    22:00 +20°C° 0.3 mm 1 m/s 740 mmHg 91%
    23:00 +19°C° 0 mm 1 m/s 740 mmHg 92%

    Depois de amanhã, 22 Julho, Segunda-feira

    Tempo Temperatura Precipitação Vento Pressão Humidade
    00:00 +19°C° 0 mm 1 m/s 740 mmHg 92%
    01:00 +19°C° 0 mm 1 m/s 740 mmHg 92%
    02:00 +18°C° 0 mm 1 m/s 740 mmHg 92%
    03:00 +18°C° 0 mm 1 m/s 740 mmHg 93%
    04:00 +16°C° 0 mm 1 m/s 740 mmHg 93%
    05:00 +16°C° 0 mm 0 m/s 740 mmHg 91%
    06:00 +17°C° 0 mm 0 m/s 740 mmHg 89%
    07:00 +18°C° 0 mm 0 m/s 740 mmHg 87%
    08:00 +20°C° 0 mm 0 m/s 740 mmHg 80%
    09:00 +24°C° 0 mm 1 m/s 741 mmHg 72%
    10:00 +26°C° 0 mm 1 m/s 741 mmHg 65%
    11:00 +26°C° 0 mm 1 m/s 740 mmHg 60%
    12:00 +27°C° 0 mm 1 m/s 740 mmHg 56%
    13:00 +28°C° 0 mm 2 m/s 740 mmHg 51%
    14:00 +28°C° 0 mm 2 m/s 740 mmHg 51%
    15:00 +28°C° 0 mm 2 m/s 740 mmHg 51%
    16:00 +28°C° 0 mm 2 m/s 739 mmHg 51%
    17:00 +27°C° 0 mm 2 m/s 739 mmHg 57%
    18:00 +25°C° 0 mm 2 m/s 739 mmHg 64%
    19:00 +24°C° 0 mm 1 m/s 739 mmHg 70%
    20:00 +23°C° 0 mm 1 m/s 740 mmHg 71%
    21:00 +21°C° 0 mm 1 m/s 740 mmHg 72%
    22:00 +20°C° 0 mm 1 m/s 740 mmHg 73%
    23:00 +20°C° 0 mm 1 m/s 740 mmHg 75%

    23 Julho, Terça-feira

    Tempo Temperatura Precipitação Vento Pressão Humidade
    00:00 +19°C° 0 mm 1 m/s 740 mmHg 77%
    01:00 +18°C° 0 mm 1 m/s 740 mmHg 79%
    02:00 +16°C° 0 mm 0 m/s 739 mmHg 81%
    03:00 +16°C° 0 mm 0 m/s 739 mmHg 82%
    04:00 +15°C° 0 mm 0 m/s 739 mmHg 84%
    05:00 +17°C° 0 mm 0 m/s 739 mmHg 80%
    06:00 +18°C° 0 mm 0 m/s 739 mmHg 77%
    07:00 +19°C° 0 mm 0 m/s 739 mmHg 73%
    08:00 +21°C° 0 mm 0 m/s 739 mmHg 69%
    09:00 +25°C° 0 mm 1 m/s 739 mmHg 64%
    10:00 +26°C° 0 mm 1 m/s 739 mmHg 60%
    11:00 +27°C° 0 mm 1 m/s 739 mmHg 56%
    12:00 +28°C° 0 mm 1 m/s 739 mmHg 52%
    13:00 +29°C° 0 mm 1 m/s 738 mmHg 49%
    14:00 +29°C° 0 mm 1 m/s 738 mmHg 49%
    15:00 +30°C° 0 mm 1 m/s 738 mmHg 49%
    16:00 +30°C° 0 mm 1 m/s 738 mmHg 49%
    17:00 +28°C° 0 mm 1 m/s 737 mmHg 56%
    18:00 +27°C° 0 mm 1 m/s 737 mmHg 62%
    19:00 +26°C° 0 mm 1 m/s 737 mmHg 69%
    20:00 +24°C° 0 mm 1 m/s 738 mmHg 71%
    21:00 +23°C° 0 mm 1 m/s 738 mmHg 74%
    22:00 +20°C° 0 mm 2 m/s 738 mmHg 76%
    23:00 +21°C° 0 mm 1 m/s 738 mmHg 77%

    24 Julho, Quarta-feira

    Tempo Temperatura Precipitação Vento Pressão Humidade
    00:00 +20°C° 0 mm 1 m/s 738 mmHg 78%
    01:00 +20°C° 0 mm 1 m/s 738 mmHg 80%
    02:00 +19°C° 0 mm 1 m/s 737 mmHg 81%
    03:00 +19°C° 0 mm 1 m/s 737 mmHg 83%
    04:00 +19°C° 0 mm 1 m/s 737 mmHg 84%
    05:00 +20°C° 0 mm 1 m/s 737 mmHg 81%
    06:00 +21°C° 0 mm 1 m/s 737 mmHg 78%
    07:00 +23°C° 0 mm 1 m/s 737 mmHg 75%
    08:00 +24°C° 0 mm 2 m/s 737 mmHg 70%
    09:00 +26°C° 0 mm 2 m/s 737 mmHg 66%
    10:00 +28°C° 0 mm 3 m/s 737 mmHg 61%
    11:00 +29°C° 0 mm 3 m/s 737 mmHg 58%
    12:00 +30°C° 0 mm 3 m/s 737 mmHg 54%
    13:00 +31°C° 0 mm 3 m/s 736 mmHg 51%
    14:00 +31°C° 0 mm 3 m/s 736 mmHg 51%
    15:00 +33°C° 0 mm 3 m/s 736 mmHg 51%
    16:00 +33°C° 0 mm 3 m/s 736 mmHg 52%
    17:00 +30°C° 0 mm 3 m/s 736 mmHg 58%
    18:00 +28°C° 0 mm 3 m/s 736 mmHg 65%
    19:00 +27°C° 0 mm 2 m/s 736 mmHg 72%
    20:00 +25°C° 0 mm 2 m/s 736 mmHg 73%
    21:00 +24°C° 0 mm 2 m/s 736 mmHg 74%
    22:00 +23°C° 0 mm 1 m/s 736 mmHg 76%
    23:00 +22°C° 0 mm 1 m/s 736 mmHg 77%

    25 Julho, Quinta-feira

    Tempo Temperatura Precipitação Vento Pressão Humidade
    00:00 +22°C° 0 mm 1 m/s 736 mmHg 78%
    01:00 +21°C° 0 mm 1 m/s 737 mmHg 80%
    02:00 +21°C° 0 mm 1 m/s 736 mmHg 82%
    03:00 +20°C° 0 mm 1 m/s 736 mmHg 84%
    04:00 +20°C° 0 mm 1 m/s 736 mmHg 86%
    05:00 +21°C° 0 mm 1 m/s 736 mmHg 82%
    06:00 +22°C° 0 mm 1 m/s 737 mmHg 79%
    07:00 +24°C° 0 mm 1 m/s 737 mmHg 75%
    08:00 +25°C° 0 mm 2 m/s 737 mmHg 71%
    09:00 +27°C° 0 mm 2 m/s 737 mmHg 66%
    10:00 +29°C° 0 mm 3 m/s 737 mmHg 61%
    11:00 +30°C° 0 mm 3 m/s 737 mmHg 58%
    12:00 +31°C° 0 mm 3 m/s 736 mmHg 56%
    13:00 +34°C° 0 mm 3 m/s 736 mmHg 53%
    14:00 +34°C° 0 mm 3 m/s 736 mmHg 52%
    15:00 +34°C° 0 mm 3 m/s 736 mmHg 51%
    16:00 +35°C° 0 mm 4 m/s 736 mmHg 50%
    17:00 +33°C° 0 mm 3 m/s 736 mmHg 55%
    18:00 +30°C° 0 mm 3 m/s 736 mmHg 61%
    19:00 +28°C° 0 mm 3 m/s 736 mmHg 66%
    20:00 +27°C° 0 mm 2 m/s 736 mmHg 66%
    21:00 +26°C° 0 mm 2 m/s 736 mmHg 65%
    22:00 +25°C° 0 mm 2 m/s 736 mmHg 65%
    23:00 +24°C° 0 mm 2 m/s 736 mmHg 66%
    Mostrar mais